| time (UTC) | temp F | wind direction | speed knots | gust knots | rain 1hr in | rain 24hr in | rain mn in | humidity % | barometer mb |
| 20260506184526 | 43 | 317 | 8.7 | 13.9 | 0.00 | 0.00 | 0.00 | 54 | 1018.4 |
| 20260506183018 | 43 | 327 | 5.2 | 9.6 | 0.00 | 0.00 | 0.00 | 54 | 1018.4 |
| 20260506181516 | 42 | 294 | 7.0 | 11.3 | 0.00 | 0.00 | 0.00 | 54 | 1018.5 |
| 20260506180023 | 41 | 306 | 6.1 | 12.2 | 0.00 | 0.00 | 0.00 | 55 | 1018.7 |
| 20260506174513 | 41 | 296 | 6.1 | 9.6 | 0.00 | 0.00 | 0.00 | 54 | 1018.7 |
| 20260506173013 | 41 | 338 | 4.3 | 8.7 | 0.00 | 0.00 | 0.00 | 55 | 1018.8 |
| 20260506171513 | 41 | 308 | 7.0 | 10.4 | 0.00 | 0.00 | 0.00 | 55 | 1018.8 |
| 20260506170015 | 41 | 297 | 7.0 | 17.4 | 0.00 | 0.00 | 0.00 | 55 | 1018.7 |
| 20260506164515 | 40 | 335 | 6.1 | 11.3 | 0.00 | 0.00 | 0.00 | 56 | 1018.7 |
| 20260506163011 | 40 | 338 | 7.0 | 12.2 | 0.00 | 0.00 | 0.00 | 55 | 1018.7 |
| 20260506161511 | 41 | 302 | 5.2 | 9.6 | 0.00 | 0.00 | 0.00 | 56 | 1018.7 |
| 20260506160007 | 41 | 328 | 7.0 | 9.6 | 0.00 | 0.00 | 0.00 | 56 | 1018.7 |
| 20260506154506 | 40 | 333 | 7.0 | 13.0 | 0.00 | 0.00 | 0.00 | 55 | 1018.6 |
| 20260506153003 | 40 | 318 | 5.2 | 10.4 | 0.00 | 0.00 | 0.00 | 59 | 1018.4 |
| 20260506151501 | 40 | 350 | 6.1 | 9.6 | 0.00 | 0.00 | 0.00 | 60 | 1018.3 |
| 20260506144604 | 40 | 283 | 5.2 | 7.0 | 0.00 | 0.00 | 0.00 | 60 | 1018.3 |
| 20260506143059 | 40 | 281 | 3.5 | 6.1 | 0.00 | 0.00 | 0.00 | 60 | 1018.3 |
| 20260506141603 | 39 | 278 | 3.5 | 5.2 | 0.00 | 0.00 | 0.00 | 60 | 1018.4 |
| 20260506140109 | 39 | 297 | 2.6 | 4.3 | 0.00 | 0.00 | 0.00 | 61 | 1018.3 |
| 20260506134557 | 38 | 285 | 2.6 | 4.3 | 0.00 | 0.00 | 0.00 | 62 | 1018.3 |
| 20260506133102 | 37 | 289 | 2.6 | 4.3 | 0.00 | 0.00 | 0.00 | 66 | 1018.1 |
| 20260506131552 | 37 | 294 | 2.6 | 4.3 | 0.00 | 0.00 | 0.00 | 68 | 1018.2 |
| 20260506130050 | 36 | 297 | 2.6 | 3.5 | 0.00 | 0.00 | 0.00 | 69 | 1017.9 |
| 20260506124549 | 36 | 290 | 2.6 | 3.5 | 0.00 | 0.00 | 0.00 | 70 | 1017.8 |
| 20260506123048 | 35 | 295 | 1.7 | 3.5 | 0.00 | 0.00 | 0.00 | 71 | 1017.7 |
| 20260506121547 | 34 | 298 | 1.7 | 3.5 | 0.00 | 0.00 | 0.00 | 73 | 1017.7 |
| 20260506120048 | 33 | 311 | 1.7 | 3.5 | 0.00 | 0.00 | 0.00 | 73 | 1017.4 |
| 20260506114542 | 32 | 319 | 1.7 | 2.6 | 0.00 | 0.00 | 0.00 | 74 | 1017.1 |
| 20260506113047 | 32 | 334 | 1.7 | 2.6 | 0.00 | 0.00 | 0.00 | 73 | 1016.9 |
| 20260506111542 | 32 | 334 | 1.7 | 2.6 | 0.00 | 0.00 | 0.00 | 72 | 1016.6 |
| 20260506110040 | 32 | 335 | 1.7 | 2.6 | 0.00 | 0.00 | 0.00 | 71 | 1016.4 |
| 20260506104545 | 32 | 335 | 1.7 | 3.5 | 0.00 | 0.00 | 0.00 | 71 | 1016.2 |
| 20260506103038 | 32 | 333 | 1.7 | 3.5 | 0.00 | 0.00 | 0.00 | 72 | 1016.3 |
| 20260506101546 | 33 | 333 | 2.6 | 3.5 | 0.00 | 0.00 | 0.00 | 71 | 1016.5 |
| 20260506100035 | 32 | 332 | 1.7 | 2.6 | 0.00 | 0.00 | 0.00 | 71 | 1016.4 |
| 20260506094534 | 32 | 332 | 1.7 | 2.6 | 0.00 | 0.00 | 0.00 | 70 | 1016.3 |
| 20260506093029 | 33 | 332 | 1.7 | 3.5 | 0.00 | 0.00 | 0.00 | 69 | 1016.3 |
| 20260506091528 | 33 | 333 | 1.7 | 3.5 | 0.00 | 0.00 | 0.00 | 69 | 1016.0 |
| 20260506090025 | 34 | 333 | 1.7 | 3.5 | 0.00 | 0.00 | 0.00 | 67 | 1016.0 |
| 20260506084532 | 35 | 335 | 3.5 | 5.2 | 0.00 | 0.00 | 0.00 | 66 | 1015.8 |
| 20260506083020 | 35 | 333 | 2.6 | 4.3 | 0.00 | 0.00 | 0.00 | 65 | 1015.6 |
| 20260506081523 | 35 | 335 | 2.6 | 4.3 | 0.00 | 0.00 | 0.00 | 65 | 1015.5 |
| 20260506073015 | 36 | 335 | 1.7 | 3.5 | 0.00 | 0.00 | 0.00 | 64 | 1015.5 |
| 20260506071514 | 36 | 337 | 1.7 | 3.5 | 0.00 | 0.00 | 0.00 | 64 | 1015.4 |
| 20260506061509 | 36 | 340 | 4.3 | 6.1 | 0.00 | 0.00 | 0.00 | 62 | 1015.3 |
| 20260506044619 | 40 | 338 | 4.3 | 6.1 | 0.00 | 0.00 | 0.00 | 57 | 1014.6 |
| 20260506043052 | 40 | 336 | 5.2 | 6.1 | 0.00 | 0.00 | 0.00 | 56 | 1014.7 |
| 20260506041552 | 41 | 337 | 4.3 | 7.0 | 0.00 | 0.00 | 0.00 | 55 | 1014.7 |
| 20260506040050 | 42 | 340 | 5.2 | 7.8 | 0.00 | 0.00 | 0.00 | 54 | 1014.7 |
| 20260506034549 | 43 | 338 | 6.1 | 9.6 | 0.00 | 0.00 | 0.00 | 52 | 1014.5 |
| 20260506033047 | 44 | 340 | 8.7 | 11.3 | 0.00 | 0.00 | 0.00 | 51 | 1014.4 |
| 20260506031547 | 44 | 337 | 6.1 | 8.7 | 0.00 | 0.00 | 0.00 | 50 | 1014.3 |
| 20260506030045 | 45 | 340 | 6.1 | 9.6 | 0.00 | 0.00 | 0.00 | 49 | 1014.1 |
| 20260506024547 | 45 | 338 | 7.0 | 8.7 | 0.00 | 0.00 | 0.00 | 49 | 1013.9 |
| 20260506023055 | 45 | 338 | 6.1 | 9.6 | 0.00 | 0.00 | 0.00 | 48 | 1013.7 |
| 20260506021553 | 46 | 338 | 5.2 | 7.8 | 0.00 | 0.00 | 0.00 | 47 | 1013.4 |
| 20260506020041 | 46 | 331 | 6.1 | 10.4 | 0.00 | 0.00 | 0.00 | 46 | 1013.2 |
| 20260506014540 | 47 | 334 | 8.7 | 11.3 | 0.00 | 0.00 | 0.00 | 45 | 1013.0 |
| 20260506013036 | 47 | 333 | 6.1 | 12.2 | 0.00 | 0.00 | 0.00 | 43 | 1012.8 |
| 20260506011535 | 47 | 343 | 7.8 | 13.0 | 0.00 | 0.00 | 0.00 | 43 | 1012.5 |
| 20260506010046 | 48 | 327 | 6.1 | 11.3 | 0.00 | 0.00 | 0.00 | 42 | 1012.4 |
| 20260506004531 | 48 | 323 | 7.0 | 10.4 | 0.00 | 0.00 | 0.00 | 42 | 1012.3 |
| 20260506003033 | 48 | 329 | 9.6 | 14.8 | 0.00 | 0.00 | 0.00 | 42 | 1012.2 |
| 20260506001531 | 49 | 338 | 9.6 | 12.2 | 0.00 | 0.00 | 0.00 | 41 | 1012.0 |
| 20260506000030 | 49 | 325 | 7.8 | 11.3 | 0.00 | 0.00 | 0.00 | 40 | 1012.0 |
| 20260505234549 | 49 | 328 | 7.0 | 9.6 | 0.00 | 0.00 | 0.00 | 40 | 1011.9 |
| 20260505233036 | 49 | 337 | 7.0 | 11.3 | 0.00 | 0.00 | 0.00 | 39 | 1011.9 |
| 20260505231532 | 50 | 331 | 7.8 | 12.2 | 0.00 | 0.00 | 0.00 | 40 | 1011.9 |
| 20260505230028 | 49 | 324 | 6.1 | 12.2 | 0.00 | 0.00 | 0.00 | 39 | 1011.9 |
| 20260505224532 | 50 | 336 | 7.0 | 13.0 | 0.00 | 0.00 | 0.00 | 40 | 1011.8 |
| 20260505223027 | 50 | 333 | 9.6 | 13.0 | 0.00 | 0.00 | 0.00 | 39 | 1011.8 |
| 20260505221527 | 50 | 330 | 7.8 | 13.9 | 0.00 | 0.00 | 0.00 | 39 | 1011.9 |
| 20260505220026 | 51 | 318 | 8.7 | 13.0 | 0.00 | 0.00 | 0.00 | 38 | 1011.8 |
| 20260505214549 | 50 | 303 | 7.0 | 14.8 | 0.00 | 0.00 | 0.00 | 38 | 1011.9 |
| 20260505213023 | 50 | 328 | 6.1 | 12.2 | 0.00 | 0.00 | 0.00 | 39 | 1011.8 |
| 20260505211522 | 51 | 343 | 7.8 | 13.9 | 0.00 | 0.00 | 0.00 | 40 | 1011.9 |
| 20260505210021 | 49 | 306 | 6.1 | 12.2 | 0.00 | 0.00 | 0.00 | 39 | 1011.9 |
| 20260505204521 | 50 | 325 | 6.1 | 12.2 | 0.00 | 0.00 | 0.00 | 40 | 1011.9 |
| 20260505203032 | 49 | 313 | 5.2 | 13.0 | 0.00 | 0.00 | 0.00 | 42 | 1012.1 |
| 20260505201525 | 50 | 327 | 8.7 | 14.8 | 0.00 | 0.00 | 0.00 | 41 | 1012.1 |
| 20260505200017 | 50 | 295 | 3.5 | 13.0 | 0.00 | 0.00 | 0.00 | 41 | 1012.1 |
| 20260505194515 | 50 | 323 | 9.6 | 15.6 | 0.00 | 0.00 | 0.00 | 43 | 1012.1 |
| 20260505193014 | 49 | 344 | 7.8 | 11.3 | 0.00 | 0.00 | 0.00 | 42 | 1012.0 |
| 20260505191514 | 50 | 318 | 7.8 | 11.3 | 0.00 | 0.00 | 0.00 | 42 | 1012.0 |
| 20260505190012 | 49 | 350 | 7.8 | 13.0 | 0.00 | 0.00 | 0.00 | 43 | 1012.1 |